TimeMST,TemperatureF,Dew PointF,Humidity,Sea Level PressureIn,VisibilityMPH,Wind Direction,Wind SpeedMPH,Gust SpeedMPH,PrecipitationIn,Events,Conditions,WindDirDegrees,DateUTC
12:15 AM,39.2,15.8,39,30.04,10.0,West,10.4,-,N/A,,Clear,260,2013-01-19 07:15:00
12:35 AM,28.4,12.2,51,30.04,10.0,South,5.8,-,N/A,,Clear,170,2013-01-19 07:35:00
12:55 AM,28.4,14.0,55,30.06,10.0,ESE,13.8,-,N/A,,Clear,110,2013-01-19 07:55:00
1:35 AM,39.2,15.8,39,30.04,10.0,WNW,24.2,-,N/A,,Clear,290,2013-01-19 08:35:00
1:55 AM,44.6,15.8,31,30.06,10.0,WNW,20.7,-,N/A,,Clear,300,2013-01-19 08:55:00
2:15 AM,44.6,15.8,31,30.06,10.0,WNW,18.4,-,N/A,,Clear,290,2013-01-19 09:15:00
2:35 AM,42.8,14.0,31,30.06,10.0,West,15.0,-,N/A,,Clear,280,2013-01-19 09:35:00
2:55 AM,42.8,14.0,31,30.08,10.0,NW,10.4,21.9,N/A,,Clear,320,2013-01-19 09:55:00
3:15 AM,39.2,12.2,33,30.08,10.0,WNW,12.7,-,N/A,,Clear,300,2013-01-19 10:15:00
3:35 AM,39.2,12.2,33,30.08,10.0,NW,16.1,-,N/A,,Clear,310,2013-01-19 10:35:00
3:55 AM,39.2,12.2,33,30.09,10.0,NNW,11.5,-,N/A,,Clear,340,2013-01-19 10:55:00
4:15 AM,39.2,12.2,33,30.10,10.0,NNW,15.0,-,N/A,,Clear,340,2013-01-19 11:15:00
4:35 AM,39.2,12.2,33,30.10,10.0,NNW,16.1,-,N/A,,Clear,340,2013-01-19 11:35:00
4:55 AM,37.4,10.4,33,30.11,10.0,North,20.7,-,N/A,,Clear,360,2013-01-19 11:55:00
5:15 AM,39.2,10.4,31,30.12,10.0,North,19.6,-,N/A,,Clear,10,2013-01-19 12:15:00
5:35 AM,37.4,10.4,33,30.13,10.0,North,19.6,-,N/A,,Clear,360,2013-01-19 12:35:00
5:55 AM,37.4,10.4,33,30.13,10.0,North,19.6,-,N/A,,Clear,10,2013-01-19 12:55:00
6:15 AM,37.4,10.4,33,30.14,8.0,North,13.8,-,N/A,,Clear,10,2013-01-19 13:15:00
6:35 AM,35.6,8.6,33,30.15,10.0,North,12.7,-,N/A,,Clear,350,2013-01-19 13:35:00
6:55 AM,32.0,8.6,38,30.16,10.0,NW,6.9,-,N/A,,Clear,320,2013-01-19 13:55:00
7:15 AM,28.4,10.4,47,30.17,10.0,WNW,10.4,-,N/A,,Clear,290,2013-01-19 14:15:00
7:35 AM,28.4,10.4,47,30.19,10.0,West,9.2,-,N/A,,Clear,280,2013-01-19 14:35:00
7:55 AM,30.2,10.4,44,30.19,10.0,WNW,9.2,-,N/A,,Clear,300,2013-01-19 14:55:00
8:15 AM,32.0,12.2,44,30.20,10.0,West,5.8,-,N/A,,Clear,280,2013-01-19 15:15:00
8:35 AM,33.8,12.2,41,30.21,10.0,West,8.1,-,N/A,,Clear,280,2013-01-19 15:35:00
8:55 AM,35.6,12.2,38,30.22,10.0,West,9.2,-,N/A,,Clear,280,2013-01-19 15:55:00
9:15 AM,37.4,14.0,38,30.23,10.0,West,6.9,-,N/A,,Clear,260,2013-01-19 16:15:00
9:35 AM,37.4,14.0,38,30.24,10.0,West,5.8,-,N/A,,Clear,260,2013-01-19 16:35:00
9:55 AM,41.0,15.8,36,30.25,10.0,Calm,Calm,-,N/A,,Clear,0,2013-01-19 16:55:00
10:15 AM,42.8,15.8,34,30.24,10.0,West,3.5,-,N/A,,Clear,270,2013-01-19 17:15:00
10:35 AM,46.4,17.6,32,30.24,10.0,SSW,4.6,-,N/A,,Clear,210,2013-01-19 17:35:00
10:55 AM,46.4,15.8,29,30.23,10.0,Calm,Calm,-,N/A,,Clear,0,2013-01-19 17:55:00
11:15 AM,48.2,15.8,27,30.22,10.0,SW,4.6,-,N/A,,Clear,230,2013-01-19 18:15:00
11:35 AM,51.8,14.0,22,30.21,10.0,Calm,Calm,-,N/A,,Clear,0,2013-01-19 18:35:00
11:55 AM,51.8,14.0,22,30.20,10.0,SW,3.5,-,N/A,,Clear,230,2013-01-19 18:55:00
12:35 PM,53.6,12.2,19,30.19,10.0,South,5.8,-,N/A,,Clear,180,2013-01-19 19:35:00
12:55 PM,53.6,12.2,19,30.18,10.0,SSE,6.9,-,N/A,,Clear,160,2013-01-19 19:55:00
1:15 PM,53.6,14.0,21,30.17,10.0,South,10.4,-,N/A,,Clear,170,2013-01-19 20:15:00
1:35 PM,55.4,14.0,20,30.16,10.0,South,8.1,-,N/A,,Clear,180,2013-01-19 20:35:00
1:55 PM,55.4,15.8,21,30.16,10.0,SSE,6.9,-,N/A,,Clear,160,2013-01-19 20:55:00
2:15 PM,55.4,14.0,20,30.15,10.0,SE,8.1,-,N/A,,Clear,140,2013-01-19 21:15:00
2:35 PM,55.4,15.8,21,30.15,10.0,SE,6.9,-,N/A,,Clear,130,2013-01-19 21:35:00
2:55 PM,55.4,15.8,21,30.15,10.0,ESE,5.8,-,N/A,,Clear,120,2013-01-19 21:55:00
3:15 PM,55.4,15.8,21,30.15,10.0,East,5.8,-,N/A,,Clear,100,2013-01-19 22:15:00
3:35 PM,53.6,15.8,22,30.15,10.0,ESE,5.8,-,N/A,,Clear,120,2013-01-19 22:35:00
4:35 PM,50.0,15.8,26,30.16,10.0,ESE,4.6,-,N/A,,Clear,110,2013-01-19 23:35:00
4:55 PM,46.4,15.8,29,30.16,10.0,SE,5.8,-,N/A,,Clear,130,2013-01-19 23:55:00
5:15 PM,44.6,14.0,29,30.16,10.0,ESE,6.9,-,N/A,,Clear,120,2013-01-20 00:15:00
5:35 PM,42.8,15.8,34,30.16,10.0,SE,5.8,-,N/A,,Clear,140,2013-01-20 00:35:00
5:55 PM,35.6,15.8,44,30.16,10.0,ENE,4.6,-,N/A,,Clear,70,2013-01-20 00:55:00
6:15 PM,35.6,15.8,44,30.16,9.0,ENE,4.6,-,N/A,,Clear,60,2013-01-20 01:15:00
6:55 PM,33.8,17.6,52,30.17,10.0,NE,6.9,-,N/A,,Clear,50,2013-01-20 01:55:00
7:15 PM,33.8,17.6,52,30.18,9.0,NE,8.1,-,N/A,,Clear,40,2013-01-20 02:15:00
7:35 PM,33.8,15.8,48,30.18,8.0,NNE,5.8,-,N/A,,Clear,30,2013-01-20 02:35:00
8:15 PM,30.2,14.0,51,30.18,9.0,NE,10.4,-,N/A,,Clear,40,2013-01-20 03:15:00
8:35 PM,30.2,14.0,51,30.19,10.0,NE,8.1,-,N/A,,Clear,40,2013-01-20 03:35:00
8:55 PM,32.0,14.0,48,30.19,8.0,East,6.9,-,N/A,,Clear,80,2013-01-20 03:55:00
9:15 PM,33.8,12.2,41,30.19,10.0,East,6.9,-,N/A,,Clear,80,2013-01-20 04:15:00
9:35 PM,32.0,12.2,44,30.19,10.0,Calm,Calm,-,N/A,,Clear,0,2013-01-20 04:35:00
9:55 PM,26.6,12.2,55,30.19,10.0,NE,3.5,-,N/A,,Clear,40,2013-01-20 04:55:00
10:35 PM,24.8,14.0,64,30.18,10.0,North,5.8,-,N/A,,Clear,10,2013-01-20 05:35:00
10:55 PM,24.8,12.2,59,30.18,10.0,North,9.2,-,N/A,,Clear,360,2013-01-20 05:55:00
11:15 PM,24.8,14.0,64,30.18,10.0,NNW,8.1,-,N/A,,Clear,340,2013-01-20 06:15:00
11:35 PM,24.8,15.8,69,30.17,10.0,NNW,10.4,-,N/A,,Clear,330,2013-01-20 06:35:00
11:55 PM,24.8,12.2,59,30.16,10.0,NNW,6.9,-,N/A,,Clear,340,2013-01-20 06:55:00